Tracking 27122 objects as of 24-Mar-2023
HD Live streaming from Space Station
objects crossing your sky now

ONEWEB-0323

Track ONEWEB-0323 now!
10-day predictions
ONEWEB-0323 is classified as:


NORAD ID: 49106
Int'l Code: 2021-075AH
Perigee: 1,219.5 km
Apogee: 1,222.2 km
Inclination: 87.9 °
Period: 109.7 minutes
Semi major axis: 7591 km
RCS: Unknown
Launch date: August 21, 2021
Source: United Kingdom (UK)
Launch site: TYURATAM MISSILE AND SPACE COMPLEX (TTMTR)
Your satellite tracking list
Your tracking list is empty




NASA's NSSDC Master Catalog

Two Line Element Set (TLE):
1 49106U 21075AH  23082.89881148 -.00000004  00000-0 -47346-4 0  9991
2 49106  87.8978 225.3224 0001745  93.0832 267.0496 13.12444345 79608
Source of the keplerian elements: AFSPC